sat.trackr.live / text

‹ back to catalog

STARLINK-35080

NORAD 65437 · 2025-194D

PAYLOAD ACTIVE UNKNOWN

§ Identity

Operator
Country
US
Launch date
2025-09-03
Launch site
AFWTR
Launch vehicle
Mass (kg)
RCS (m²)

Purposes: comms

External: N2YO · Heavens-Above · Gunter

§ Orbital elements

Epoch: 2026-09-20T18:05:11.225760Z

Period
93.90 min
Inclination
97.2839°
Eccentricity
0.0001592
Mean motion
15.33470451 rev/d
Perigee alt
464.4 km
Apogee alt
466.6 km
Semi-major
6,843.6 km
B*
1.8467e-3
RAAN
113.3477°
Arg perigee
131.3897°
Mean anomaly
228.7483°
Rev number
5,910

§ Raw data

STARLINK-350801 65437U 25194D   26263.75360215  .00060067  00000+0  18467-2 0  99902 65437  97.2839 113.3477 0001592 131.3897 228.7483 15.33470451 59102

JSON: /api/v1/satellites/65437 · /tle

For live sub-satellite position, see the globe view (requires WebGL).

§ Visibility from observer

Set your observer location to see the next 7 days of passes ≥ 10°. The values pass through the URL so the page stays shareable.

No JS? Fill the form by hand. The geolocation button needs JavaScript.